Theta_e
302 303 305 320 320 325 323 323 324 326 326 325 325 325 326 325 326 328 329 328 330 332 335 338 333 334 334 332 323 321 323 324 329 327 329 329 328 320 315 316 326 330 331 328 328 315 326 330 331
301 304 314 319 316 316 319 321 324 324 323 325 325 325 326 327 327 327 334 329 329 334 339 339 336 334 334 329 324 320 323 329 330 327 329 328 328 324 319 314 327 330 330 328 329 331 329 330 328
301 306 315 316 316 315 314 316 319 320 322 324 325 325 326 327 332 333 332 329 331 335 339 340 339 335 333 329 325 320 322 329 327 328 328 330 330 325 320 313 321 326 325 327 330 329 329 325 324
305 314 313 314 313 315 315 317 321 320 320 322 323 324 323 327 324 324 326 328 332 335 338 343 341 335 332 331 325 321 322 326 329 330 332 331 332 330 318 314 315 325 325 326 331 325 322 320 318
305 313 311 312 311 312 315 316 316 318 319 321 322 322 324 322 320 324 325 326 335 337 337 342 340 337 333 332 328 324 323 325 327 329 332 332 332 327 319 316 316 316 325 330 328 316 317 318 320
306 312 310 308 309 310 312 312 313 315 315 317 318 318 319 322 322 320 321 325 336 338 339 338 339 339 334 333 330 328 325 325 326 330 330 332 331 329 325 320 314 321 327 328 327 316 317 319 322
304 308 307 308 309 308 310 308 311 311 311 312 311 313 316 321 313 315 316 327 336 338 339 344 339 339 337 333 333 330 328 326 327 329 331 330 330 329 329 325 322 326 325 327 328 317 325 320 322
304 306 305 306 306 306 308 307 307 307 309 308 309 314 315 311 310 311 313 328 336 336 337 340 339 339 339 336 335 333 332 333 330 331 331 330 329 328 328 327 328 329 325 326 325 323 324 321 322
303 303 303 303 303 304 305 305 305 304 305 305 306 307 307 307 308 310 310 323 333 336 337 336 340 339 339 339 337 336 334 333 331 332 331 330 329 328 328 327 328 327 327 326 325 325 323 322 323
303 303 302 303 303 303 303 304 303 303 303 304 304 304 304 306 307 307 308 309 317 332 335 336 336 339 339 339 338 338 334 333 332 331 331 329 328 327 327 328 326 326 327 326 327 326 322 323 324
302 302 302 302 302 302 303 302 301 301 302 302 302 302 302 302 302 304 307 307 306 312 326 334 335 337 337 339 338 336 335 333 332 331 330 329 327 325 324 325 326 327 326 325 326 326 324 323 327
301 301 301 301 301 301 301 300 301 301 301 301 301 301 300 300 301 302 304 305 306 306 315 324 329 336 336 337 338 336 336 334 331 329 329 329 327 325 325 324 324 325 325 326 326 326 326 323 323
301 301 300 300 300 300 300 301 301 301 300 300 300 300 300 300 300 301 301 303 305 305 307 310 319 332 335 337 337 336 336 333 330 328 328 327 326 325 324 324 323 325 325 326 327 326 325 323 321
300 300 300 300 300 300 301 301 300 300 300 300 300 300 300 300 300 301 301 304 304 303 304 306 306 321 331 334 335 336 335 333 331 329 328 327 325 325 324 324 325 324 324 325 326 326 326 325 321
301 302 301 301 301 301 301 301 301 301 301 301 301 301 300 300 300 301 301 302 302 302 301 303 305 311 316 328 334 335 334 333 332 328 327 324 324 325 324 323 323 323 323 324 325 326 326 323 321
301 301 302 301 301 301 301 302 302 301 301 301 301 301 301 301 301 301 301 302 302 301 301 302 304 306 312 319 331 333 334 332 330 327 325 323 322 324 324 323 323 322 321 326 324 325 324 323 322
302 302 301 301 301 301 301 302 302 301 301 301 301 301 301 301 301 301 302 302 302 302 303 303 303 305 315 321 326 332 333 333 329 326 325 322 322 323 323 323 323 320 320 322 324 323 323 323 322
302 301 301 301 301 301 301 302 302 301 301 301 301 301 302 302 301 301 301 302 302 302 302 303 304 306 317 324 329 326 330 332 329 324 324 323 322 324 323 322 321 320 319 320 321 322 323 323 322
300 302 302 301 301 301 302 302 302 302 302 302 301 302 301 301 301 301 301 301 302 302 302 304 305 311 319 324 328 325 329 329 326 325 323 324 322 323 323 323 321 320 317 316 318 322 321 323 323
301 301 302 302 301 301 301 302 303 301 300 300 301 301 301 301 301 301 301 301 301 302 302 307 310 317 321 327 326 327 327 327 328 324 322 324 321 320 322 321 321 319 319 316 316 319 324 324 323
299 300 301 301 300 300 301 303 302 301 299 297 296 296 297 300 300 301 301 301 301 302 302 310 317 319 321 328 327 327 327 326 325 324 322 322 323 319 318 316 316 317 318 316 315 317 320 322 323
299 298 297 298 299 301 301 303 300 298 298 296 294 294 294 295 298 300 300 301 301 302 302 316 318 321 323 327 326 326 327 326 325 325 324 321 324 321 320 319 317 315 317 316 314 316 316 319 320
298 297 296 297 299 301 302 303 299 296 295 293 293 291 292 293 295 297 300 301 301 301 302 314 320 325 324 326 326 325 324 323 324 324 324 321 321 322 321 321 321 318 316 318 317 317 319 321 322
296 295 297 302 302 304 304 303 297 294 292 291 290 289 291 293 295 297 299 300 301 301 303 314 320 321 324 327 326 326 326 325 324 324 324 324 321 321 322 322 322 321 320 320 319 320 319 322 320
296 295 298 301 303 305 302 303 297 292 290 290 287 287 300 296 297 298 300 300 301 302 311 318 322 322 324 324 323 322 320 323 325 323 324 323 322 323 322 323 323 323 323 322 322 320 321 319 319
295 293 295 297 299 300 301 298 299 290 288 287 285 297 300 300 300 301 303 304 303 310 316 320 322 322 323 323 321 320 321 319 320 322 323 322 322 320 320 321 321 320 321 321 319 319 318 315 313
293 293 293 293 296 300 299 294 295 288 286 285 284 296 299 300 301 302 306 310 314 315 313 319 320 321 320 320 318 319 319 319 318 317 316 315 318 315 313 316 316 313 314 314 312 312 311 308 306
292 291 294 294 296 299 299 293 290 286 284 283 283 288 295 296 297 298 302 305 308 311 312 317 318 317 315 315 315 314 314 314 311 309 308 306 307 310 307 310 312 307 307 306 308 306 303 304 302
292 291 291 292 294 296 297 295 286 283 282 282 283 286 292 293 294 295 296 298 300 301 307 309 313 312 312 313 312 309 311 315 311 312 311 307 306 310 307 306 308 307 304 304 304 301 300 300 298
292 290 290 294 292 291 293 294 285 283 281 281 281 283 288 289 291 291 292 293 294 298 300 305 301 307 306 307 306 304 307 309 304 304 302 301 302 301 301 303 302 301 299 297 297 297 295 294 293
Wind_Speed
4 5 5 6 6 7 17 12 17 10 10 13 5 6 5 13 8 0 3 15 17 12 24 33 34 36 34 32 30 29 28 27 26 24 23 23 22 22 21 19 19 21 19 16 18 21 20 19 18
3 2 6 6 9 15 17 17 16 16 15 3 6 10 10 11 7 10 7 16 17 10 24 32 36 37 36 33 31 30 29 28 26 24 24 23 22 23 21 19 19 21 20 19 23 19 20 18 17
1 7 6 4 10 21 16 11 14 17 17 17 8 8 7 3 1 6 11 19 15 9 23 31 35 37 37 34 32 30 30 28 27 24 24 23 24 22 20 19 21 22 20 20 19 21 20 19 17
1 3 5 9 21 12 15 5 1 5 8 7 14 11 14 6 8 14 21 16 13 9 22 32 34 38 37 34 32 31 30 29 27 26 23 25 26 22 21 20 22 20 19 19 19 20 20 19 17
1 4 7 11 19 16 9 8 8 12 7 8 3 10 8 4 7 12 20 17 10 11 22 35 34 36 36 35 33 32 30 29 28 26 27 28 26 24 23 21 22 22 20 19 18 20 20 17 15
3 3 9 15 19 11 7 7 9 11 15 12 13 12 14 9 12 13 15 15 8 13 22 34 34 34 36 35 33 32 31 29 29 27 27 27 27 24 25 24 23 23 21 20 19 19 18 17 13
4 5 13 15 16 14 11 5 6 7 10 15 9 10 10 5 16 16 17 11 7 12 23 34 34 34 34 36 35 33 31 30 29 28 26 26 26 26 25 25 22 23 22 21 18 18 17 16 15
2 4 12 12 17 20 2 4 1 4 8 10 7 7 11 14 21 17 16 10 6 13 20 31 35 37 36 36 37 35 32 31 29 29 28 26 26 25 25 23 24 23 21 20 20 17 17 16 15
2 6 12 21 17 16 3 6 7 6 13 17 14 17 17 23 24 22 18 9 13 16 18 26 35 37 38 38 38 36 34 32 30 29 29 25 26 26 26 25 24 23 22 21 18 18 16 17 15
5 6 13 9 11 13 12 13 14 12 18 21 25 28 20 17 21 22 21 19 16 17 17 23 32 38 41 42 41 38 36 34 33 32 30 26 26 28 27 27 24 24 22 25 20 18 17 17 15
4 12 14 16 15 17 20 22 22 20 25 20 24 25 27 24 24 26 23 22 23 22 19 23 24 36 42 44 42 42 38 37 34 31 31 27 30 29 28 26 25 24 23 20 21 20 19 19 15
9 17 18 18 17 17 19 25 22 23 26 26 27 30 31 29 24 26 28 25 30 24 23 21 14 26 39 46 43 42 41 38 36 33 32 30 33 30 30 29 27 24 23 21 20 19 18 19 18
16 15 17 18 23 27 23 23 28 29 28 29 32 30 32 32 27 26 31 27 27 30 25 23 23 18 31 42 45 45 40 38 32 31 34 36 34 34 32 31 26 23 25 25 25 22 20 19 19
5 7 14 18 25 29 26 27 27 27 30 29 27 30 30 30 25 23 27 26 24 30 32 27 25 23 17 37 46 47 43 42 35 32 33 38 36 36 34 33 31 26 28 28 27 24 21 19 19
12 15 16 21 27 15 13 16 16 20 17 21 23 25 26 27 25 23 25 27 25 28 29 28 26 23 23 23 45 48 45 45 43 33 33 37 37 37 35 33 29 29 30 28 27 24 22 20 20
12 11 8 1 7 13 6 18 19 22 22 23 22 25 24 20 20 17 20 24 24 25 28 26 25 25 23 30 32 52 49 46 45 37 35 40 39 36 36 34 31 30 30 29 29 26 24 22 20
6 10 14 17 5 11 12 16 13 14 21 26 25 22 22 19 20 22 19 23 22 21 21 22 22 21 22 23 32 44 47 47 46 44 32 41 37 36 37 35 32 30 30 31 30 28 26 23 22
14 19 19 19 7 11 19 26 27 29 24 26 28 28 27 26 28 24 19 22 22 19 17 19 19 20 17 20 25 30 46 50 49 46 37 39 38 37 36 36 33 32 31 32 31 29 28 26 23
15 16 21 23 19 14 17 20 23 22 19 20 24 25 27 29 27 22 20 22 22 19 17 18 19 16 18 27 29 36 36 47 41 48 39 34 37 36 36 38 33 35 34 35 32 30 29 28 26
17 20 23 14 3 13 16 21 17 11 14 16 13 17 20 22 22 21 18 18 18 19 16 16 18 14 17 19 23 34 34 35 42 41 36 38 35 34 36 34 35 37 36 35 34 34 32 31 29
18 19 17 16 20 20 18 12 6 5 10 19 21 17 15 14 17 18 17 16 14 16 14 14 13 13 16 23 29 34 26 36 42 39 33 38 37 34 31 30 31 34 36 37 35 34 33 32 31
18 12 24 24 15 6 3 3 11 15 14 21 27 26 24 20 17 15 16 14 14 14 11 13 10 15 17 24 23 25 31 36 35 36 45 45 41 36 31 30 28 31 34 34 33 33 32 33 35
14 28 24 22 15 10 7 6 5 16 25 29 28 36 31 23 19 16 14 13 14 15 8 10 7 8 15 24 22 22 23 33 32 29 41 40 36 34 32 31 32 31 33 33 34 31 32 33 31
23 21 13 2 4 3 1 3 5 11 23 28 31 40 34 22 15 12 11 10 12 10 7 13 11 9 9 17 19 19 23 27 24 32 32 32 33 31 34 32 31 31 31 30 30 32 34 32 34
18 19 5 3 3 5 11 3 6 19 26 21 28 44 15 5 5 4 2 4 8 8 8 17 16 15 16 14 9 9 11 5 18 25 33 28 27 28 32 32 33 33 31 31 31 33 35 32 30
18 10 4 4 5 5 7 8 3 23 29 30 40 23 18 13 10 10 10 6 5 8 19 23 25 26 25 19 18 12 13 9 2 2 22 25 21 22 20 30 27 28 27 27 25 24 19 14 12
12 12 7 4 6 3 4 7 2 28 31 38 40 33 27 25 20 17 19 18 22 28 31 30 29 30 29 24 26 23 18 15 5 15 19 20 15 16 16 15 15 12 10 7 7 7 5 0 4
9 11 2 3 6 5 5 5 10 27 27 30 30 36 33 32 28 25 25 26 29 31 36 36 36 38 42 40 39 40 37 34 25 27 31 30 30 23 21 23 19 18 19 15 13 14 15 11 13
14 9 4 1 4 3 5 4 9 17 18 23 25 35 32 32 28 28 29 31 35 36 40 42 44 44 44 42 40 42 39 32 33 33 31 31 31 26 26 26 23 21 21 21 19 20 18 17 16
22 12 5 3 5 4 3 4 13 16 19 25 30 33 33 32 30 31 32 36 40 42 45 47 46 46 45 43 42 45 41 38 36 37 38 35 35 33 32 29 29 28 28 27 26 24 23 22 22
Wind_Direction
314 261 197 177 230 234 245 232 229 224 229 230 215 212 248 238 235 224 320 330 304 257 214 203 200 196 194 194 191 191 188 187 187 185 185 184 182 180 177 180 168 167 163 168 150 150 154 164 161
334 180 172 207 241 237 241 230 232 239 232 163 240 249 240 256 254 281 329 335 341 255 201 201 201 197 196 195 193 190 187 186 186 188 185 186 190 186 183 184 166 172 174 168 159 164 174 171 169
339 169 207 223 239 239 256 220 240 242 252 260 261 252 269 245 283 333 314 321 325 274 203 203 201 198 196 195 194 191 189 189 190 191 189 188 185 183 186 184 172 179 177 178 171 178 182 177 176
118 202 234 238 241 246 275 182 137 230 255 253 249 262 245 244 281 319 309 317 307 255 209 203 205 200 197 196 196 193 192 193 192 188 186 186 186 183 185 186 173 171 177 175 177 179 180 178 177
220 238 246 243 256 258 249 262 266 259 268 251 250 250 238 245 323 299 298 303 290 230 213 205 207 203 199 199 198 195 197 196 196 194 193 190 188 185 186 185 173 173 178 177 181 177 180 184 182
244 273 244 256 261 246 266 292 263 253 258 272 272 273 259 235 299 317 320 307 291 230 213 209 208 205 203 201 201 199 199 199 198 196 194 189 187 186 184 184 179 175 179 179 185 183 186 187 183
255 241 261 283 277 266 253 309 263 269 266 267 295 256 251 252 328 324 331 316 292 232 218 204 207 208 208 205 204 202 201 202 199 199 196 193 189 189 186 182 177 177 184 182 185 188 187 188 184
294 272 252 247 263 272 274 301 268 296 272 293 272 263 261 300 318 320 327 307 252 245 230 208 207 207 210 209 208 205 203 201 196 198 195 198 197 194 187 183 180 179 185 189 189 188 192 193 193
142 245 258 259 274 276 289 284 284 279 276 277 262 272 281 302 307 306 317 292 246 233 229 220 211 209 211 213 211 209 205 201 198 199 200 200 202 200 191 187 186 184 184 194 190 191 194 195 196
222 246 267 310 283 289 297 290 295 281 274 262 268 273 281 286 295 302 303 307 292 248 227 219 224 219 215 215 210 208 204 200 199 199 198 202 202 203 197 189 191 189 193 187 194 196 197 199 203
204 244 269 264 266 279 282 274 275 269 265 274 276 280 283 285 290 286 289 293 301 288 267 228 210 224 219 219 216 203 203 201 200 201 201 199 208 207 206 195 189 194 197 189 197 201 204 202 198
249 242 251 265 269 265 266 286 272 262 274 283 280 280 282 284 281 278 279 286 287 288 282 274 236 223 229 225 223 212 199 205 202 201 202 203 209 209 207 203 193 192 197 195 201 203 202 207 210
250 263 268 271 269 268 277 263 266 274 281 273 272 271 274 277 276 271 272 276 279 278 278 283 277 222 222 227 223 217 210 203 202 201 204 213 207 211 211 209 202 195 200 198 204 208 209 213 219
274 269 277 274 269 273 274 274 276 272 267 271 270 268 265 266 268 269 269 268 273 277 276 281 286 263 230 218 229 225 213 217 206 202 206 211 211 215 213 213 206 203 204 203 209 214 216 222 225
280 282 278 269 268 275 288 266 248 268 274 273 273 274 270 263 264 258 265 270 274 274 275 273 277 277 272 254 225 230 219 220 214 204 206 213 209 217 217 217 213 212 207 208 213 217 221 225 228
280 273 285 166 286 272 259 276 271 277 273 272 274 270 267 262 264 260 266 270 273 277 277 274 270 272 283 264 237 224 222 218 214 208 210 214 213 217 217 217 213 216 209 211 217 221 225 230 232
227 295 301 303 294 273 247 283 278 283 274 280 275 275 266 255 261 274 274 267 274 278 275 267 256 257 274 276 249 214 225 224 215 213 209 215 214 214 218 219 215 217 214 218 221 224 227 234 236
310 304 295 289 271 285 274 275 283 284 278 273 269 267 262 262 272 280 274 263 265 271 271 270 245 245 258 256 222 244 237 219 219 213 214 217 215 216 218 221 223 215 217 220 223 227 229 234 239
294 284 284 282 289 285 282 286 291 302 294 280 272 266 263 266 273 275 272 265 264 269 278 260 235 236 254 233 227 228 216 222 205 208 215 217 221 216 219 220 220 219 221 222 225 225 232 237 236
287 296 292 287 274 294 294 293 307 28 36 18 345 304 274 271 272 271 272 270 264 270 279 251 222 225 261 231 216 223 212 211 229 214 215 224 223 226 222 226 224 222 221 225 227 228 231 235 236
309 298 292 297 310 291 272 263 57 28 23 10 5 346 327 309 287 272 270 266 256 264 280 234 211 213 248 225 218 210 221 208 205 225 232 233 231 232 227 228 228 224 223 228 229 232 234 239 242
310 316 307 293 297 277 19 287 51 356 353 351 345 339 325 311 299 286 268 263 239 251 270 214 205 215 225 223 209 216 214 213 221 231 222 222 229 231 230 232 233 230 231 233 237 238 242 243 249
301 308 303 289 272 264 239 223 41 14 353 343 336 328 316 304 297 291 281 256 227 242 246 212 211 197 220 195 206 221 220 229 223 225 221 219 228 235 234 236 237 238 237 238 241 244 247 251 254
340 319 311 344 192 186 205 252 44 16 346 336 332 320 310 291 284 280 274 237 217 227 207 188 169 152 176 186 199 213 221 217 229 230 223 228 231 232 239 238 241 246 248 248 251 250 254 255 259
354 352 6 53 13 40 6 31 64 5 352 339 326 318 335 278 271 290 302 179 196 191 157 165 139 125 161 167 169 114 23 105 215 203 203 213 218 230 227 227 232 235 239 247 247 246 247 255 256
351 11 18 7 357 329 351 6 76 5 342 339 344 349 51 60 66 81 91 105 158 125 154 146 128 124 116 116 123 120 90 13 342 211 195 211 214 211 210 218 212 218 226 236 229 232 242 245 246
340 3 312 261 225 251 20 8 165 349 346 350 347 6 27 37 45 67 86 94 117 132 123 120 116 128 113 111 108 108 89 77 108 141 133 138 168 158 141 166 167 138 151 157 156 133 118 131 39
6 353 3 5 12 10 31 46 346 346 341 338 347 352 16 27 34 58 88 101 117 124 115 117 115 109 109 104 99 100 94 85 93 96 100 101 102 102 98 105 102 97 96 94 78 85 81 72 79
12 12 348 285 10 350 333 57 2 345 341 334 339 350 11 23 30 48 75 96 106 112 113 114 115 116 110 107 108 103 100 91 100 96 94 94 96 97 96 90 93 93 89 86 90 94 93 89 88
31 9 349 344 15 17 295 74 18 356 349 345 345 355 11 25 35 51 66 81 90 105 107 107 106 107 106 106 107 103 103 107 100 99 99 99 98 100 98 96 97 94 90 89 88 87 83 78 70